Pasco, WA

1:54 PM PDT on August 28, 2016 (GMT -0700)
Tri-Cities

Weather History for KPSC - March, 2014

Change the Weather History Date:

Sunday, March 16, 2014

  Actual Average Record
Temperature  
Mean Temperature 58 °F 46 °F  
Max Temperature 69 °F 59 °F 73 °F (2004)
Min Temperature 47 °F 34 °F 26 °F (1991)
Degree Days  
Heating Degree Days 7 18  
Month to date heating degree days 288 333  
Since 1 July heating degree days 4517 4216  
Cooling Degree Days 0 0  
Month to date cooling degree days 0 0  
Year to date cooling degree days 0 0  
Growing Degree Days 10 (Base 50)    
Moisture  
Dew Point 40 °F    
Average Humidity 56    
Maximum Humidity 80    
Minimum Humidity 32    
Precipitation  
Precipitation 0.03 in 0.03 in 0.32 in (2001)
Month to date precipitation 0.41 0.40  
Year to date precipitation 1.39 2.48  
Snow  
Snow 0.00 in - - ()
Snow Depth 0.00 in    
Sea Level Pressure  
Sea Level Pressure 30.00 in    
Wind  
Wind Speed 15 mph (SW)    
Max Wind Speed 25 mph    
Max Gust Speed 32 mph    
Visibility 10 miles    
Events Rain    
T = Trace of Precipitation, MM = Missing Value Source: NWS Daily Summary

Daily Weather History Graph

Daily Weather History Graph

Search for Another Location

Airport or City:

Trip Planner

Search our weather history database for the weather conditions in past years. The results will help you decide how hot, cold, wet, or windy it might be!

Date:

Astronomy

Mar. 16, 2014 Rise Set
Actual Time 7:07 AM PDT 7:03 PM PDT
Civil Twilight 6:37 AM PDT 7:33 PM PDT
Nautical Twilight 6:02 AM PDT 8:08 PM PDT
Astronomical Twilight 5:26 AM PDT 8:44 PM PDT
Moon 7:29 PM PDT (3/16) 6:51 AM PDT (3/16)
Length of Visible Light 12h 56m
Length of Day
11h 56m
Full, 100% of the Moon is Illuminated
Mar 16
Full
Mar 23
Last Quarter
Mar 30
New
Apr 7
First Quarter
Apr 15
Full

Hourly Weather History & Observations

Time (PDT) Temp. Dew Point Humidity Pressure Visibility Wind Dir Wind Speed Gust Speed Precip Events Conditions
12:53 AM 57.0 °F 37.0 °F 47% 30.21 in 10.0 mi South 12.7 mph - N/A   Clear
1:53 AM 57.0 °F 39.9 °F 53% 30.20 in 10.0 mi South 17.3 mph - N/A   Clear
2:53 AM 55.0 °F 41.0 °F 59% 30.19 in 10.0 mi South 9.2 mph - N/A   Clear
3:53 AM 54.0 °F 42.1 °F 64% 30.17 in 10.0 mi SW 5.8 mph - N/A   Clear
4:53 AM 54.0 °F 42.1 °F 64% 30.16 in 10.0 mi SW 8.1 mph - N/A   Clear
5:53 AM 54.0 °F 42.1 °F 64% 30.14 in 10.0 mi SSW 15.0 mph - N/A   Clear
6:53 AM 54.0 °F 42.1 °F 64% 30.13 in 10.0 mi SW 17.3 mph - N/A   Clear
7:53 AM 54.0 °F 43.0 °F 66% 30.12 in 10.0 mi SW 24.2 mph 29.9 mph N/A   Clear
8:53 AM 55.9 °F 43.0 °F 62% 30.12 in 10.0 mi WSW 20.7 mph 26.5 mph N/A   Clear
9:53 AM 59.0 °F 43.0 °F 55% 30.13 in 10.0 mi SW 19.6 mph 28.8 mph N/A   Clear
10:53 AM 62.1 °F 42.1 °F 48% 30.11 in 10.0 mi WSW 21.9 mph - N/A   Clear
11:53 AM 64.9 °F 41.0 °F 42% 30.08 in 10.0 mi SW 20.7 mph 28.8 mph N/A   Clear
12:53 PM 68.0 °F 37.9 °F 33% 30.05 in 10.0 mi WSW 23.0 mph 27.6 mph N/A   Clear
1:53 PM 68.0 °F 39.0 °F 35% 30.02 in 10.0 mi WSW 21.9 mph 29.9 mph N/A   Clear
2:53 PM 68.0 °F 39.0 °F 35% 29.97 in 10.0 mi SW 23.0 mph 26.5 mph N/A   Clear
3:53 PM 68.0 °F 37.9 °F 33% 29.93 in 10.0 mi WSW 18.4 mph - N/A   Clear
4:53 PM 66.9 °F 39.0 °F 36% 29.89 in 10.0 mi WSW 11.5 mph - N/A   Clear
5:53 PM 64.9 °F 39.0 °F 39% 29.85 in 10.0 mi SW 8.1 mph - N/A   Clear
6:53 PM 63.0 °F 39.0 °F 41% 29.82 in 10.0 mi SW 11.5 mph - N/A   Clear
7:53 PM 60.1 °F 36.0 °F 41% 29.81 in 10.0 mi WNW 17.3 mph 21.9 mph N/A   Clear
8:43 PM 54.0 °F 37.0 °F 53% 29.81 in 10.0 mi NNW 9.2 mph - N/A   Clear
8:53 PM 53.1 °F 37.9 °F 57% 29.82 in 10.0 mi NNW 9.2 mph - N/A   Clear
9:53 PM 53.1 °F 41.0 °F 64% 29.81 in 10.0 mi WNW 12.7 mph - 0.00 in Rain Light Rain
10:53 PM 52.0 °F 44.1 °F 74% 29.80 in 10.0 mi SSW 8.1 mph - 0.00 in Rain Light Rain
11:53 PM 50.0 °F 44.1 °F 80% 29.78 in 10.0 mi SW 6.9 mph - 0.01 in Rain Light Rain